Location: Boda
(47.1872°N, 9.5454°E)
Time: 08:00:03
(UTC+00:00)

Meteor 2-10 Rocket - Pass Details

Date: 14 May 2021
Orbit: 734 x 885 km, 81.2° (Epoch: 16 June)

Event Time Altitude Azimuth Distance (km) Brightness Sun altitude
Rises 02:45:10 0° 346° (NNW) 3,481 7.3 -9.4°
Reaches altitude 10° 02:47:39 10° 344° (NNW) 2,525 6.5 -9.1°
Maximum altitude 02:53:21 69° 263° (W) 909 3.7 -8.4°
Drops below altitude 10° 02:58:49 10° 181° (S) 2,420 5.7 -7.6°
Sets 03:01:10 0° 179° (S) 3,325 6.4 -7.3°
